Time,TemperatureF,DewpointF,PressureIn,WindDirection,WindDirectionDegrees,WindSpeedMPH,WindSpeedGustMPH,Humidity,HourlyPrecipIn,Conditions,Clouds,dailyrainin,SoftwareType,DateUTC
2013-03-10 03:42:00,22.0,12.0,-100.00,ENE,59,5.0,7.0,66,-99.99,,,-99.99,,2013-03-10 10:42:00,
2013-03-10 03:52:00,15.0,10.0,-100.00,South,189,4.0,9.0,80,-99.99,,,-99.99,,2013-03-10 10:52:00,
2013-03-10 04:01:00,15.0,10.0,-100.00,South,189,4.0,9.0,80,-99.99,,,-99.99,,2013-03-10 11:01:00,
2013-03-10 04:11:00,18.0,11.0,-100.00,ESE,109,1.0,2.0,75,-99.99,,,-99.99,,2013-03-10 11:11:00,
2013-03-10 04:31:00,18.0,11.0,-100.00,South,175,0.0,3.0,75,-99.99,,,-99.99,,2013-03-10 11:31:00,
2013-03-10 04:42:00,19.0,13.0,-100.00,WSW,240,2.0,5.0,77,-99.99,,,-99.99,,2013-03-10 11:42:00,
2013-03-10 04:52:00,19.0,13.0,-100.00,NNE,13,0.0,2.0,76,-99.99,,,-99.99,,2013-03-10 11:52:00,
2013-03-10 05:01:00,19.0,13.0,-100.00,NNE,13,0.0,2.0,76,-99.99,,,-99.99,,2013-03-10 12:01:00,
2013-03-10 05:11:00,20.0,12.0,-100.00,WSW,257,1.0,2.0,72,-99.99,,,-99.99,,2013-03-10 12:11:00,
2013-03-10 05:31:00,16.0,11.0,-100.00,NNW,339,0.0,3.0,81,-99.99,,,-99.99,,2013-03-10 12:31:00,
2013-03-10 05:52:00,17.0,12.0,-100.00,NNE,24,0.0,2.0,79,-99.99,,,-99.99,,2013-03-10 12:52:00,
2013-03-10 06:01:00,17.0,12.0,-100.00,NNE,20,1.0,2.0,80,-99.99,,,-99.99,,2013-03-10 13:01:00,
2013-03-10 06:11:00,15.0,8.0,-100.00,SE,137,0.0,5.0,72,-99.99,,,-99.99,,2013-03-10 13:11:00,
2013-03-10 06:21:00,15.0,9.0,-100.00,ESE,113,5.0,7.0,78,-99.99,,,-99.99,,2013-03-10 13:21:00,
2013-03-10 06:31:00,15.0,9.0,-100.00,ESE,113,5.0,7.0,78,-99.99,,,-99.99,,2013-03-10 13:31:00,
2013-03-10 06:41:00,15.0,11.0,-100.00,ESE,121,4.0,5.0,83,-99.99,,,-99.99,,2013-03-10 13:41:00,
2013-03-10 07:01:00,18.0,12.0,-100.00,East,97,4.0,6.0,76,-99.99,,,-99.99,,2013-03-10 14:01:00,
2013-03-10 07:11:00,18.0,12.0,-100.00,East,97,4.0,6.0,76,-99.99,,,-99.99,,2013-03-10 14:11:00,
2013-03-10 07:21:00,17.0,12.0,-100.00,East,86,5.0,7.0,80,-99.99,,,-99.99,,2013-03-10 14:21:00,
2013-03-10 07:32:00,16.0,11.0,-100.00,ESE,102,2.0,6.0,82,-99.99,,,-99.99,,2013-03-10 14:32:00,
2013-03-10 07:51:00,14.0,9.0,-100.00,NNE,32,2.0,5.0,79,-99.99,,,-99.99,,2013-03-10 14:51:00,
2013-03-10 08:01:00,14.0,10.0,-100.00,WSW,258,1.0,5.0,85,-99.99,,,-99.99,,2013-03-10 15:01:00,
2013-03-10 08:11:00,17.0,13.0,-100.00,WNW,284,1.0,2.0,85,-99.99,,,-99.99,,2013-03-10 15:11:00,
2013-03-10 08:31:00,20.0,14.0,-100.00,SW,226,0.0,2.0,76,-99.99,,,-99.99,,2013-03-10 15:31:00,
2013-03-10 08:41:00,20.0,14.0,-100.00,SSW,209,0.0,2.0,78,-99.99,,,-99.99,,2013-03-10 15:41:00,
2013-03-10 08:51:00,20.0,15.0,-100.00,SW,224,1.0,3.0,80,-99.99,,,-99.99,,2013-03-10 15:51:00,
2013-03-10 09:01:00,24.0,18.0,-100.00,SW,223,1.0,3.0,77,-99.99,,,-99.99,,2013-03-10 16:01:00,
2013-03-10 09:11:00,24.0,18.0,-100.00,SW,223,1.0,3.0,77,-99.99,,,-99.99,,2013-03-10 16:11:00,
2013-03-10 09:21:00,24.0,18.0,-100.00,SW,223,1.0,3.0,77,-99.99,,,-99.99,,2013-03-10 16:21:00,
2013-03-10 10:51:00,38.0,14.0,-100.00,NNE,28,2.0,5.0,37,-99.99,,,-99.99,,2013-03-10 17:51:00,
2013-03-10 11:01:00,38.0,14.0,-100.00,NNE,28,2.0,5.0,37,-99.99,,,-99.99,,2013-03-10 18:01:00,
2013-03-10 11:11:00,39.0,14.0,-100.00,NNW,332,3.0,7.0,35,-99.99,,,-99.99,,2013-03-10 18:11:00,
2013-03-10 11:21:00,39.0,13.0,-100.00,WNW,298,4.0,8.0,34,-99.99,,,-99.99,,2013-03-10 18:21:00,
2013-03-10 11:31:00,39.0,13.0,-100.00,WNW,298,4.0,8.0,34,-99.99,,,-99.99,,2013-03-10 18:31:00,
2013-03-10 11:41:00,42.0,13.0,-100.00,NW,304,1.0,4.0,30,-99.99,,,-99.99,,2013-03-10 18:41:00,
2013-03-10 11:52:00,42.0,13.0,-100.00,NW,304,1.0,4.0,30,-99.99,,,-99.99,,2013-03-10 18:52:00,
2013-03-10 12:01:00,42.0,13.0,-100.00,NW,304,1.0,4.0,30,-99.99,,,-99.99,,2013-03-10 19:01:00,
2013-03-10 12:11:00,47.0,9.0,-100.00,West,270,2.0,6.0,21,-99.99,,,-99.99,,2013-03-10 19:11:00,
2013-03-10 12:21:00,47.0,10.0,-100.00,West,268,2.0,6.0,22,-99.99,,,-99.99,,2013-03-10 19:21:00,
2013-03-10 12:31:00,47.0,9.0,-100.00,SSW,196,3.0,8.0,21,-99.99,,,-99.99,,2013-03-10 19:31:00,
2013-03-10 12:41:00,49.0,9.0,-100.00,SSW,203,2.0,8.0,19,-99.99,,,-99.99,,2013-03-10 19:41:00,
2013-03-10 12:52:00,49.0,9.0,-100.00,SSW,203,2.0,8.0,19,-99.99,,,-99.99,,2013-03-10 19:52:00,
2013-03-10 13:02:00,50.0,10.0,-100.00,East,86,2.0,5.0,20,-99.99,,,-99.99,,2013-03-10 20:02:00,
2013-03-10 13:12:00,50.0,10.0,-100.00,East,86,2.0,5.0,20,-99.99,,,-99.99,,2013-03-10 20:12:00,
2013-03-10 13:22:00,50.0,4.0,-100.00,South,185,2.0,6.0,15,-99.99,,,-99.99,,2013-03-10 20:22:00,
2013-03-10 13:32:00,51.0,4.0,-100.00,WNW,282,2.0,5.0,14,-99.99,,,-99.99,,2013-03-10 20:32:00,
2013-03-10 13:42:00,51.0,4.0,-100.00,WNW,282,2.0,5.0,14,-99.99,,,-99.99,,2013-03-10 20:42:00,
2013-03-10 13:52:00,53.0,4.0,-100.00,NE,54,1.0,4.0,13,-99.99,,,-99.99,,2013-03-10 20:52:00,
2013-03-10 14:02:00,52.0,3.0,-100.00,NNE,31,4.0,8.0,13,-99.99,,,-99.99,,2013-03-10 21:02:00,
2013-03-10 14:12:00,52.0,3.0,-100.00,NNE,31,4.0,8.0,13,-99.99,,,-99.99,,2013-03-10 21:12:00,
2013-03-10 14:22:00,53.0,4.0,-100.00,North,349,3.0,7.0,13,-99.99,,,-99.99,,2013-03-10 21:22:00,
2013-03-10 14:42:00,53.0,4.0,-100.00,North,349,3.0,7.0,13,-99.99,,,-99.99,,2013-03-10 21:42:00,
2013-03-10 14:53:00,55.0,3.0,-100.00,WNW,282,4.0,8.0,12,-99.99,,,-99.99,,2013-03-10 21:53:00,
2013-03-10 15:02:00,55.0,3.0,-100.00,WNW,282,4.0,8.0,12,-99.99,,,-99.99,,2013-03-10 22:02:00,
2013-03-10 15:12:00,55.0,1.0,-100.00,NNW,328,3.0,9.0,11,-99.99,,,-99.99,,2013-03-10 22:12:00,
2013-03-10 15:22:00,56.0,0.0,-100.00,West,281,4.0,9.0,10,-99.99,,,-99.99,,2013-03-10 22:22:00,
2013-03-10 15:42:00,56.0,2.0,-100.00,WNW,292,3.0,9.0,11,-99.99,,,-99.99,,2013-03-10 22:42:00,
2013-03-10 15:53:00,58.0,6.0,-100.00,NW,309,3.0,8.0,12,-99.99,,,-99.99,,2013-03-10 22:53:00,
2013-03-10 16:02:00,58.0,6.0,-100.00,NW,309,3.0,8.0,12,-99.99,,,-99.99,,2013-03-10 23:02:00,
2013-03-10 16:12:00,57.0,3.0,-100.00,WNW,289,5.0,12.0,11,-99.99,,,-99.99,,2013-03-10 23:12:00,
2013-03-10 16:22:00,58.0,4.0,-100.00,NW,306,4.0,10.0,11,-99.99,,,-99.99,,2013-03-10 23:22:00,
2013-03-10 16:32:00,58.0,4.0,-100.00,NW,306,4.0,10.0,11,-99.99,,,-99.99,,2013-03-10 23:32:00,
2013-03-10 16:42:00,57.0,5.0,-100.00,NW,319,6.0,13.0,12,-99.99,,,-99.99,,2013-03-10 23:42:00,
2013-03-10 16:52:00,57.0,5.0,-100.00,NW,319,6.0,13.0,12,-99.99,,,-99.99,,2013-03-10 23:52:00,
2013-03-10 17:02:00,57.0,3.0,-100.00,NW,323,7.0,14.0,11,-99.99,,,-99.99,,2013-03-11 00:02:00,
2013-03-10 17:12:00,57.0,3.0,-100.00,NW,323,7.0,14.0,11,-99.99,,,-99.99,,2013-03-11 00:12:00,
2013-03-10 17:22:00,58.0,0.0,-100.00,NNW,328,8.0,13.0,9,-99.99,,,-99.99,,2013-03-11 00:22:00,
2013-03-10 17:32:00,58.0,7.0,-100.00,NW,320,6.0,11.0,13,-99.99,,,-99.99,,2013-03-11 00:32:00,
2013-03-10 17:42:00,57.0,7.0,-100.00,NW,320,8.0,13.0,13,-99.99,,,-99.99,,2013-03-11 00:42:00,
2013-03-10 17:52:00,57.0,7.0,-100.00,NW,320,8.0,13.0,13,-99.99,,,-99.99,,2013-03-11 00:52:00,
2013-03-10 18:02:00,58.0,7.0,-100.00,NNW,329,9.0,17.0,13,-99.99,,,-99.99,,2013-03-11 01:02:00,
2013-03-10 18:12:00,57.0,8.0,-100.00,NNW,332,8.0,13.0,14,-99.99,,,-99.99,,2013-03-11 01:12:00,
2013-03-10 18:22:00,57.0,8.0,-100.00,NNW,332,8.0,13.0,14,-99.99,,,-99.99,,2013-03-11 01:22:00,
2013-03-10 18:32:00,57.0,8.0,-100.00,NNW,337,7.0,10.0,14,-99.99,,,-99.99,,2013-03-11 01:32:00,
2013-03-10 18:42:00,57.0,10.0,-100.00,NNW,343,6.0,8.0,15,-99.99,,,-99.99,,2013-03-11 01:42:00,
2013-03-10 18:52:00,57.0,10.0,-100.00,NNW,343,6.0,8.0,15,-99.99,,,-99.99,,2013-03-11 01:52:00,
2013-03-10 19:02:00,55.0,10.0,-100.00,NNW,330,5.0,8.0,16,-99.99,,,-99.99,,2013-03-11 02:02:00,
2013-03-10 19:12:00,55.0,10.0,-100.00,NNW,330,5.0,8.0,16,-99.99,,,-99.99,,2013-03-11 02:12:00,
2013-03-10 19:22:00,50.0,15.0,-100.00,West,272,5.0,9.0,24,-99.99,,,-99.99,,2013-03-11 02:22:00,
2013-03-10 19:32:00,50.0,15.0,-100.00,West,272,5.0,9.0,24,-99.99,,,-99.99,,2013-03-11 02:32:00,
2013-03-10 19:52:00,43.0,15.0,-100.00,WNW,285,7.0,10.0,32,-99.99,,,-99.99,,2013-03-11 02:52:00,
2013-03-10 20:02:00,43.0,15.0,-100.00,WNW,285,7.0,10.0,32,-99.99,,,-99.99,,2013-03-11 03:02:00,
2013-03-10 20:12:00,44.0,15.0,-100.00,WNW,294,9.0,12.0,31,-99.99,,,-99.99,,2013-03-11 03:12:00,
2013-03-10 20:22:00,44.0,15.0,-100.00,WNW,292,11.0,13.0,30,-99.99,,,-99.99,,2013-03-11 03:22:00,
2013-03-10 20:32:00,44.0,15.0,-100.00,WNW,292,11.0,13.0,30,-99.99,,,-99.99,,2013-03-11 03:32:00,
2013-03-10 20:42:00,44.0,15.0,-100.00,WNW,292,11.0,13.0,30,-99.99,,,-99.99,,2013-03-11 03:42:00,
2013-03-10 21:22:00,40.0,17.0,-100.00,NW,305,9.0,11.0,39,-99.99,,,-99.99,,2013-03-11 04:22:00,
2013-03-10 21:32:00,39.0,18.0,-100.00,NW,306,10.0,12.0,42,-99.99,,,-99.99,,2013-03-11 04:32:00,
2013-03-10 21:41:00,39.0,12.0,-100.00,East,85,3.0,6.0,33,-99.99,,,-99.99,,2013-03-11 04:41:00,
2013-03-10 21:42:00,39.0,17.0,-100.00,NW,306,10.0,12.0,40,-99.99,,,-99.99,,2013-03-11 04:42:00,
2013-03-10 21:52:00,41.0,16.0,-100.00,NNW,337,5.0,11.0,36,-99.99,,,-99.99,,2013-03-11 04:52:00,
2013-03-10 22:03:00,39.0,14.0,-100.00,SSE,147,0.0,3.0,36,-99.99,,,-99.99,,2013-03-11 05:03:00,
2013-03-10 22:11:00,39.0,12.0,-100.00,East,85,3.0,6.0,33,-99.99,,,-99.99,,2013-03-11 05:11:00,
2013-03-10 22:22:00,39.0,12.0,-100.00,East,85,3.0,6.0,33,-99.99,,,-99.99,,2013-03-11 05:22:00,
2013-03-10 22:32:00,39.0,12.0,-100.00,East,85,3.0,6.0,33,-99.99,,,-99.99,,2013-03-11 05:32:00,
2013-03-10 22:52:00,33.0,15.0,-100.00,SE,136,3.0,6.0,47,-99.99,,,-99.99,,2013-03-11 05:52:00,
2013-03-10 23:02:00,34.0,15.0,-100.00,SE,130,2.0,4.0,45,-99.99,,,-99.99,,2013-03-11 06:02:00,
2013-03-10 23:12:00,33.0,16.0,-100.00,SE,128,2.0,4.0,49,-99.99,,,-99.99,,2013-03-11 06:12:00,
2013-03-10 23:22:00,34.0,18.0,-100.00,SSE,151,3.0,6.0,51,-99.99,,,-99.99,,2013-03-11 06:22:00,
2013-03-10 23:32:00,34.0,18.0,-100.00,SSE,151,3.0,6.0,51,-99.99,,,-99.99,,2013-03-11 06:32:00,
2013-03-10 23:42:00,34.0,15.0,-100.00,East,79,3.0,5.0,45,-99.99,,,-99.99,,2013-03-11 06:42:00,
2013-03-10 23:53:00,32.0,15.0,-100.00,East,92,4.0,6.0,48,-99.99,,,-99.99,,2013-03-11 06:53:00,